Lid_Strength_Index
3 2 2 1 1 1 1 0 0 -0 -0 0 1 1 1 0 -0 -1 -1 -1 -1 -1 -1 -1 -1 -1 -1 -1 -1 -0 0 -0 -1 0 1 0 -1 -1 -1 -1 -1 -1 -1
4 3 2 2 2 1 1 1 0 0 0 0 -0 -0 -0 -0 -1 -1 -1 -1 -1 -2 -1 -1 -1 -1 -1 -1 -1 -0 0 -0 -1 1 1 2 2 -0 -1 -1 -1 -1 -1
5 4 3 2 2 2 1 1 1 0 -0 -0 -0 -0 -0 -0 0 -0 -0 -1 -1 -1 -1 -1 -2 -1 -1 -1 -1 -1 0 1 -0 -0 1 3 3 1 0 0 -1 -1 -1
4 4 3 3 2 2 1 1 0 0 -0 -1 0 0 1 2 1 0 -0 -1 -1 -1 -1 -1 -1 -1 -1 -1 -1 -1 -0 -0 1 0 -1 -0 1 2 3 0 -0 -1 -0
4 4 3 3 2 1 1 1 0 0 0 -0 -0 1 1 1 0 0 -0 -1 -1 -1 -1 -1 -1 -1 -1 -1 -1 -0 -1 -0 -0 0 0 0 0 0 2 3 1 -0 -0
4 3 3 2 2 1 1 1 1 1 0 0 0 0 1 1 1 1 1 0 -0 -0 -1 -1 -1 -1 -1 -1 -1 -1 -1 -0 -0 -0 0 0 1 1 2 2 2 2 0
4 4 3 3 3 2 2 1 1 1 1 0 0 0 0 0 1 1 1 0 0 0 -0 -1 -1 -0 -1 -1 -1 -1 -0 -0 0 0 0 -0 0 -0 0 1 2 2 1
4 4 3 3 3 2 2 2 1 1 1 1 1 0 0 0 1 0 0 0 0 -0 -1 -1 -1 -1 -1 -1 -1 -0 -0 -1 -0 -0 -0 0 -0 -0 0 1 2 3 2
4 4 3 3 3 2 2 2 2 1 1 1 0 0 0 0 0 -0 -0 0 -1 -0 -1 -1 -1 -1 -1 -1 -1 -0 -0 -0 -0 -0 -0 0 -0 -0 -0 -0 0 2 4
4 4 3 3 2 2 2 1 1 1 1 1 1 1 0 0 0 0 0 -0 -0 -1 -1 -0 -1 -1 -1 -1 -1 -0 -0 -0 -0 -0 -0 -0 -0 -0 -0 0 0 1 2
4 4 3 3 2 2 2 2 2 1 1 1 1 1 1 0 0 0 -0 -0 -0 -1 -0 -0 -1 -0 -0 -1 -0 -0 -0 0 0 -0 0 0 -1 0 0 -0 0 1 1
4 3 3 3 3 2 2 2 2 1 1 1 1 1 0 0 0 0 0 -0 -0 -0 -0 -0 -0 -0 -0 -0 -0 0 -0 0 0 0 0 0 0 0 -0 0 0 0 0
4 3 3 3 3 3 2 2 2 2 1 1 1 1 1 1 1 0 0 -0 -0 -0 -0 -0 -0 -0 -0 -0 -0 -0 -0 0 0 0 0 0 0 1 0 0 0 0 1
4 4 3 3 3 3 2 2 2 1 1 1 1 1 1 1 1 0 0 -0 -0 -0 -0 -0 -0 -0 -0 -0 -0 -0 -0 0 -0 -0 -0 -0 0 0 0 0 0 0 1
4 4 4 3 3 3 2 2 2 1 1 2 2 1 1 1 0 0 0 0 0 0 -0 -0 -0 -0 -0 0 -0 -0 0 0 0 -0 -0 -0 0 1 1 0 0 0 1
5 4 3 3 3 3 3 2 2 2 1 2 2 1 1 1 1 1 1 0 0 0 0 0 0 0 0 2 3 1 0 0 0 1 0 -0 1 1 3 3 3 0 1
5 5 4 3 3 3 2 3 2 1 2 2 2 1 1 1 1 1 1 1 1 0 1 1 0 1 0 4 4 2 0 0 0 0 0 0 -0 0 -0 3 4 4 4
5 4 4 3 2 2 2 2 2 2 2 2 2 1 1 1 1 1 1 1 1 1 1 1 0 1 0 4 5 3 -0 0 0 0 0 0 0 -0 0 0 0 0 -0
4 4 3 3 2 2 2 2 2 2 2 2 2 2 1 1 1 2 1 1 1 1 1 1 1 1 1 5 6 4 0 1 1 0 -0 0 0 2 4 0 1 1 0
5 4 3 2 2 2 2 2 3 2 3 2 2 1 1 1 2 1 1 1 1 1 1 1 1 2 1 5 7 4 1 1 1 0 0 4 1 5 6 1 1 2 1
5 3 3 3 2 2 2 3 3 3 2 1 1 1 1 1 1 1 1 1 1 1 1 1 1 0 1 1 8 8 1 1 1 1 1 0 6 7 8 7 1 1 1
8 5 3 3 2 1 2 3 3 1 1 1 1 1 1 1 1 1 1 1 1 2 2 1 1 1 0 5 7 9 8 3 1 1 1 1 8 10 10 8 6 7 6
11 8 6 4 3 2 2 2 2 1 1 2 2 2 1 1 1 1 2 2 1 2 2 2 2 2 1 1 9 10 10 9 2 1 2 6 10 11 9 11 9 10 4
11 10 9 8 6 3 2 2 2 1 1 2 2 1 2 2 1 1 1 2 2 2 2 2 2 2 2 1 1 1 4 9 6 5 2 3 5 6 4 4 6 4 2
8 10 9 9 8 7 4 4 2 1 2 2 2 2 2 2 2 1 1 2 1 2 2 2 2 2 2 2 4 3 1 1 3 3 1 1 2 2 3 2 1 2 3
7 7 8 9 9 8 7 6 4 2 2 2 2 2 2 2 2 2 2 13 12 14 15 13 7 1 7 11 12 14 13 12 13 4 2 3 3 3 3 3 2 2 4